Location: Ammerl�gen
(47.2167°N, 9.6000°E)
Time: 10:57:47
(UTC+00:00)

CZ-4 R/B DEB - Pass Details

Date: 22 October 2021
Orbit: 738 x 791 km, 98.5° (Epoch: 26 November)

Event Time Altitude Azimuth Distance (km) Brightness Sun altitude
Exits shadow 20:11:33 19° 279° (W) 1,731 ? -38.8°
Drops below altitude 10° 20:14:24 10° 314° (NW) 2,256 ? -39.2°
Sets 20:17:20 0° 332° (NNW) 3,187 ? -39.6°
